Regional Weather Roundup
Issued by NWS

Home | Current Version | Previous Version | Graphics & Text | Print | Product List | Glossary On
Versions: 1 2 3 4 5 6 7 8 9 10 11 12 13 14 15 16 17 18 19 20 21 22 23 24 25 26 27 28 29 30 31 32 33 34 35 36 37 38 39 40 41 42 43 44 45 46 47 48 49 50
000
ASUS45 KTFX 171919
RWRMT
MONTANA HOURLY WEATHER ROUNDUP
NATIONAL WEATHER SERVICE GREAT FALLS MT
1219 PM MST WED DEC 17 2014

NOTE: "FAIR" INDICATES FEW OR NO CLOUDS BELOW 12000 FEET WITH NO
SIGNIFICANT WEATHER AND/OR OBSTRUCTIONS TO VISIBILITY.

* THESE STATIONS ARE NOT UNDER NWS QUALITY CONTROL. THEY DO NOT
   REPORT WEATHER SUCH AS PRECIPITATION OR FOG.

MTZ001>007-043-172000-
WEST OF THE DIVIDE
CITY           SKY/WX    TMP DP  RH WIND       PRES   REMARKS
KALISPELL      CLOUDY    32  25  75 CALM      29.96F
MISSOULA       SUNNY     34  21  59 CALM      29.97F
BUTTE          PTSUNNY   27  25  92 E3        29.92F
MULLAN PASS    PTCLDY    30  28  92 VRB7      29.85F WCI  23
* ANACONDA     PTCLDY    37  23  57 N/A        N/A
* ESSEX        N/A       27  22  81 N/A        N/A
* EUREKA APT   PTCLDY    30  25  82 CALM      30.00F
* HAMILTON APT SUNNY     37  23  57 E1        29.94F
* LIBBY APT    PTCLDY    36  27  70 CALM      29.98R
* LINCOLN      N/A       30  23  75 NE1        N/A
* LOOKOUT PASS N/A       31  25  78 S4         N/A
* POLSON       N/A       30  27  89 NE2        N/A
* RONAN APT    PTCLDY    32  28  85 N/A        N/A
* SEELEY LAKE  N/A       30  23  75 N/A        N/A
* THOMP F APT  PTCLDY    27  23  85 S2         N/A
$$

MTZ008-052>055-172000-
SOUTHWEST MONTANA
CITY           SKY/WX    TMP DP  RH WIND       PRES   REMARKS
BOZEMAN        CLOUDY    30  25  82 CALM      29.95F
DILLON         CLOUDY    30  25  82 S6        29.94F WCI  24
* W YELLOWSTON PTCLDY    29  24  82 SW3G8      N/A
* THREE FORKS  PTCLDY    30   7  38 N/A        N/A
* BOULDER HILL N/A       30  23  75 S7         N/A   WCI  23
* MONIDA PASS  N/A       24  21  88 SE11       N/A   WCI  13
* RAYNOLDS PAS N/A       26  11  53 S8         N/A   WCI  18
* WHITEHALL    N/A       34  29  82 W2         N/A
* WISE RIVER   N/A       27  19  72 W3         N/A
$$

MTZ009>010-012-014-046-048-049-054-172000-
EAST SLOPES AND CENTRAL MONTANA
CITY           SKY/WX    TMP DP  RH WIND       PRES   REMARKS
CUT BANK       FOG       19  18  96 E3        29.86F VSB M1/4
GREAT FALLS    CLOUDY    34  30  85 S10       29.87F WCI  26
HELENA         CLOUDY    30  25  82 CALM      29.96S
MALMSTROM AFB  CLOUDY    28  28 100 N2        29.90F
* CONRAD       SUNNY     21  19  92 CALM       N/A
* DEARBORN     N/A       36  28  73 S6         N/A   WCI  31
* EAST GLACIER N/A       35  23  62 W14G20     N/A   WCI  26
* MONARCH      N/A       33  19  56 SW9G14     N/A   WCI  25
* PENDROY      N/A       32  32 100 SW2        N/A
* ROGERS PASS  N/A       29  22  75 SE9G17     N/A   WCI  21
* SWEET GRASS  N/A       21  21 100 S12G17     N/A   WCI   9
* WHITE SULPH  N/A       35  28  76 SW3G11     N/A
$$

MTZ011-013-016-021-035-040-045-047-050-051-172000-
NORTH CENTRAL MONTANA
CITY           SKY/WX    TMP DP  RH WIND       PRES   REMARKS
HAVRE          CLOUDY    27  21  78 E3        29.94F
LEWISTOWN      LGT SNOW  32  28  85 E3        29.89F
* N BAR RANCH  FOG       28  27  96 CALM      29.89F VSB 2
* CHINOOK      PTSUNNY   27  21  78 E9        29.96F WCI  18
* CHESTER      N/A       26  24  92 S4         N/A
* DENTON       N/A       29  28  96 SE2        N/A
* GEYSER       N/A       36  36 100 N/A        N/A
* JUDITH GAP   N/A       32  32 100 SW9        N/A   WCI  24
* LOMA         N/A       28  24  85 E9         N/A   WCI  19
$$

MTZ017>020-022>027-061-062-172000-
NORTHEAST MONTANA
CITY           SKY/WX    TMP DP  RH WIND       PRES   REMARKS
GLASGOW        CLOUDY    19  16  88 E12       30.02F WCI   6
GLENDIVE       CLOUDY    21  16  81 SE13      30.05F WCI   8
JORDAN         PTSUNNY   27  21  78 SE9       29.98F WCI  18
SIDNEY         CLOUDY    21  18  88 S10       30.12F WCI  10
WOLF POINT     CLOUDY    21  16  81 E7        30.09F WCI  12
* BEAVER HILL  N/A       18  16  92 SE9        N/A   WCI   7
* CIRCLE       N/A       24  21  88 SE7        N/A   WCI  16
* LINDSAY DVD  N/A       19  17  92 SE8        N/A   WCI   9
* NAVAJO       N/A       16  13  88 SE11       N/A   WCI   3
* PLENTYWOOD A PTCLDY    18  14  84 SE14      30.09F WCI   4
* POPLAR APT   PTSUNNY   19  16  88 SE7       30.09F WCI  10
* SACO         N/A       21  18  88 E11        N/A   WCI   9
$$

MTZ028>042-056>058-172000-
SOUTHCENTRAL AND SOUTHEAST MONTANA
CITY           SKY/WX    TMP DP  RH WIND       PRES   REMARKS
BAKER          CLOUDY    19  18  96 SE16      30.03F WCI   4
BILLINGS       PTSUNNY   27  21  78 SW15      29.93F WCI  15
LIVINGSTON     CLOUDY    37  25  62 SW17G24   29.91F WCI  27
MILES CITY     CLOUDY    23  19  85 SE9       30.01F WCI  13
* FORSYTH APT  PTCLDY    25  21  85 E6        29.99F WCI  18
* LAUREL APT   PTCLDY    30  19  64 SW10       N/A   WCI  21
* ROUNDUP APT  PTSUNNY   28  23  81 N/A        N/A
* ALZADA       N/A       18  16  92 SE2        N/A
* HYSHAM       N/A       26  19  75 W6         N/A   WCI  19
* LAME DEER    N/A       27  26  96 N/A        N/A
* REED POINT   N/A       29  23  78 E4         N/A
* ROSCOE HILL  N/A       32  18  56 SE6        N/A   WCI  26
$$

REGIONAL REPORTS...DAKOTAS
CITY           SKY/WX    TMP DP  RH WIND       PRES   REMARKS
WILLISTON      CLOUDY    19  12  74 S9        30.13F WCI   8
DICKINSON      LGT SNOW  18  12  77 SE14      30.08F VSB 3    WCI   4
BEACH          CLOUDY    18  18 100 N/A       30.06F
CROSBY         LGT SNOW  18  16  92 S13G20    30.13F WCI   5
TIOGA          LGT SNOW  16  16 100 SE14      30.14F WCI   2
WATFORD CITY   CLOUDY    19  14  81 S15       30.10F WCI   5
BISMARCK       PTCLDY    18   9  68 SE10      30.24F WCI   6
GRAND FORKS    SUNNY     16   9  74 CALM      30.37F
FARGO          SUNNY     16   9  74 CALM      30.36F
BUFFALO SD     PTCLDY    19  16  88 SE13      29.96F WCI   6
RAPID CITY     CLOUDY    21  19  92 SE8       30.00F WCI  11
$$

REGIONAL REPORTS...WYOMING/IDAHO/WASHINGTON
CITY           SKY/WX    TMP DP  RH WIND       PRES   REMARKS
GILLETTE       SUNNY     23  18  81 CALM      29.92F
SHERIDAN       SUNNY     19  16  88 CALM      29.95F
CODY           CLOUDY    25  23  92 NE3       29.90F
YELLOWSTONE LA PTSUNNY   25  19  78 VRB5      29.95F WCI  19
SALMON         CLOUDY    30  25  82 N3        29.99F
MULLAN PASS    PTCLDY    30  28  92 VRB7      29.85S WCI  23
SAND POINT     CLOUDY    36  30  79 NE9       29.96F WCI  29
SPOKANE        CLOUDY    36  30  79 NE8       29.91F WCI  30
$$

REGIONAL REPORTS...ALBERTA
CITY           SKY/WX    TMP DP  RH WIND       PRES   REMARKS
CALGARY        PTCLDY    30  21  69 S5        29.78S WCI  25
LETHBRIDGE     PTCLDY    28  25  89 S12       29.82S WCI  18
MEDICINE HAT   PTSUNNY   21  21 100 SE2       29.88F
EDMONTON       CLOUDY    23  19  85 S7        29.83F WCI  15
WATERTON GATE  N/A       37  25  62 SW16G24    N/A   WCI  28
CARDSTON       N/A       27  21  78 SE6        N/A   WCI  20
MILK RIVER     N/A       21  21 100 S7         N/A   WCI  12
$$

REGIONAL REPORTS...SASKATCHEWAN
CITY           SKY/WX    TMP DP  RH WIND       PRES   REMARKS
SWIFT CURRENT  CLOUDY    19  18  96 S23       29.93S WCI   2
MOOSE JAW      LGT SNOW  19  16  88 S15       30.08F WCI   5
REGINA         CLOUDY    18  14  84 S17       30.10F WCI   3
VAL MARIE      N/A       19  18  96 S7         N/A   WCI  10
ASSINIBOIA     N/A       16  12  84 S12        N/A   WCI   3
CORONACH       N/A       16  14  92 SE10       N/A   WCI   4

$$




USA.gov is the U.S. government's official web portal to all federal, state and local government web resources and services.